{"data":{"norad_id":57932,"epoch":"2026-09-20T10:07:29.021088Z","epoch_age_seconds":141131,"freshness":"FRESH","line1":"1 57932U 23147V   26263.42186367 -.00000690  00000+0 -15551-4 0  9996","line2":"2 57932  43.0016 305.1313 0000883 280.6588  79.4164 15.27572103166382","mean_motion":15.27572103,"eccentricity":8.83e-5,"inclination_deg":43.0016,"raan_deg":305.1313,"arg_perigee_deg":280.6588,"mean_anomaly_deg":79.4164,"bstar":-1.5551e-5,"rev_number":16638,"period_min":94.267236038939,"perigee_km":482.46689778018,"apogee_km":483.67858742073,"semimajor_km":6861.2097426005,"source":"CELESTRAK","updated_at":"2026-09-21T09:00:33.743446Z"}}